,,,PA_Meas_PMT16A,,PR_Meas_QMR101_102,,RH_Meas_QMH101,,SR_Meas_QMS101,,TA_Meas_QMH101,,GenWind,,GenWind,
date,time,status,PA,status,PR,status,RH,status,SR,status,TA,status,DirAvg,status,SpdAvg,
2009-05-12, 00:00:04,VALID,1002.05,VALID,0,VALID,81.7053,VALID,0.100563,VALID,26.0187,VALID,58,VALID,1.175,
2009-05-12, 00:01:04,VALID,1002.01,VALID,0,VALID,81.629,VALID,0,VALID,26.0791,VALID,16,VALID,0.649609,
2009-05-12, 00:02:04,VALID,1001.99,VALID,0,VALID,81.7892,VALID,0,VALID,26.0576,VALID,20,VALID,0.651563,
2009-05-12, 00:03:04,VALID,1001.95,VALID,0,VALID,81.9723,VALID,0,VALID,26.0012,VALID,22,VALID,0.337891,
2009-05-12, 00:04:04,VALID,1001.92,VALID,0,VALID,82.1859,VALID,0,VALID,25.9427,VALID,16,VALID,0.217969,
2009-05-12, 00:05:04,VALID,1001.91,VALID,0,VALID,82.2622,VALID,0,VALID,25.9232,VALID,39,VALID,0.992578,
2009-05-12, 00:06:04,VALID,1001.91,VALID,0,VALID,82.4987,VALID,0,VALID,25.8823,VALID,14,VALID,0.69375,
2009-05-12, 00:07:04,VALID,1001.87,VALID,0,VALID,82.7276,VALID,0,VALID,25.8434,VALID,5,VALID,0.454688,
2009-05-12, 00:08:04,VALID,1001.89,VALID,0,VALID,82.842,VALID,0,VALID,25.8259,VALID,5,VALID,0,
2009-05-12, 00:09:04,VALID,1001.89,VALID,0,VALID,82.8496,VALID,0,VALID,25.8259,VALID,11,VALID,0.00078125,
2009-05-12, 00:10:04,VALID,1001.92,VALID,0,VALID,82.9717,VALID,0,VALID,25.8044,VALID,7,VALID,0.876172,
2009-05-12, 00:11:04,VALID,1001.92,VALID,0,VALID,82.9107,VALID,0,VALID,25.8259,VALID,6,VALID,0.51875,
2009-05-12, 00:12:04,VALID,1001.89,VALID,0,VALID,82.903,VALID,0,VALID,25.8064,VALID,13,VALID,0.497266,
2009-05-12, 00:13:04,VALID,1001.88,VALID,0,VALID,82.781,VALID,0,VALID,25.7869,VALID,32,VALID,0.998047,
2009-05-12, 00:14:04,VALID,1001.85,VALID,0,VALID,82.5979,VALID,0,VALID,25.8823,VALID,6,VALID,0.629297,
2009-05-12, 00:15:04,VALID,1001.83,VALID,0,VALID,82.636,VALID,0,VALID,25.8843,VALID,13,VALID,0.458594,
2009-05-12, 00:16:04,VALID,1001.81,VALID,0,VALID,82.5826,VALID,0,VALID,25.8648,VALID,32,VALID,0.747266,
2009-05-12, 00:17:04,VALID,1001.85,VALID,0,VALID,82.514,VALID,0,VALID,25.9057,VALID,27,VALID,0.663672,
2009-05-12, 00:18:04,VALID,1001.84,VALID,0,VALID,82.575,VALID,0,VALID,25.8843,VALID,21,VALID,0.340234,
2009-05-12, 00:19:04,VALID,1001.86,VALID,0,VALID,82.1478,VALID,0,VALID,25.9427,VALID,21,VALID,1.44922,
2009-05-12, 00:20:04,VALID,1001.88,VALID,0,VALID,81.8579,VALID,0,VALID,26.0187,VALID,13,VALID,0.567187,
2009-05-12, 00:21:04,VALID,1001.89,VALID,0,VALID,81.7206,VALID,0,VALID,26.0596,VALID,34,VALID,0.483984,
2009-05-12, 00:22:04,VALID,1001.91,VALID,0,VALID,81.5451,VALID,0,VALID,26.0791,VALID,356,VALID,0.735156,
2009-05-12, 00:23:04,VALID,1001.92,VALID,0,VALID,81.7053,VALID,0,VALID,26.0791,VALID,354,VALID,0.257031,
2009-05-12, 00:24:04,VALID,1001.96,VALID,0,VALID,81.5222,VALID,0,VALID,26.0791,VALID,354,VALID,0.621875,
2009-05-12, 00:25:04,VALID,1002,VALID,0,VALID,81.4841,VALID,0,VALID,26.0791,VALID,355,VALID,0.671484,
2009-05-12, 00:26:04,VALID,1002.01,VALID,0,VALID,81.4993,VALID,0,VALID,26.0791,VALID,348,VALID,0.403906,
2009-05-12, 00:27:04,VALID,1002.04,VALID,0,VALID,81.6519,VALID,0,VALID,26.0187,VALID,352,VALID,0.887891,
2009-05-12, 00:28:04,VALID,1002.09,VALID,0,VALID,81.6443,VALID,0,VALID,26.0401,VALID,356,VALID,0.894531,
2009-05-12, 00:29:04,VALID,1002.1,VALID,0,VALID,81.629,VALID,0,VALID,26.0401,VALID,349,VALID,0.524219,
2009-05-12, 00:30:04,VALID,1002.08,VALID,0,VALID,81.6367,VALID,0,VALID,26.0596,VALID,348,VALID,0.564844,
2009-05-12, 00:31:04,VALID,1002.05,VALID,0,VALID,81.7892,VALID,0,VALID,26.0596,VALID,347,VALID,0.44375,
2009-05-12, 00:32:04,VALID,1002.09,VALID,0,VALID,81.7053,VALID,0,VALID,26.0206,VALID,349,VALID,0.532422,
2009-05-12, 00:33:04,VALID,1002.05,VALID,0,VALID,81.8045,VALID,0,VALID,26.0596,VALID,360,VALID,0.692969,
2009-05-12, 00:34:04,VALID,1002.09,VALID,0,VALID,81.7663,VALID,0,VALID,26.0401,VALID,351,VALID,0.916016,
2009-05-12, 00:35:04,VALID,1002.05,VALID,0,VALID,81.9418,VALID,0,VALID,26.0401,VALID,350,VALID,0.505078,
2009-05-12, 00:36:04,VALID,1002.07,VALID,0,VALID,82.102,VALID,0,VALID,26.0206,VALID,1,VALID,0.771094,
2009-05-12, 00:37:04,VALID,1002.04,VALID,0,VALID,82.2927,VALID,0,VALID,26.0012,VALID,8,VALID,0.507813,
2009-05-12, 00:38:04,VALID,1002.04,VALID,0,VALID,82.3004,VALID,0,VALID,25.9622,VALID,346,VALID,1.04844,
2009-05-12, 00:39:04,VALID,1002.06,VALID,0,VALID,82.2698,VALID,0,VALID,25.9427,VALID,342,VALID,0.440234,
2009-05-12, 00:40:04,VALID,1002.03,VALID,0,VALID,82.3461,VALID,0,VALID,25.9213,VALID,351,VALID,0.812109,
2009-05-12, 00:41:04,VALID,1002.06,VALID,0,VALID,82.4072,VALID,0,VALID,25.9232,VALID,345,VALID,0.664844,
2009-05-12, 00:42:04,VALID,1002.06,VALID,0,VALID,82.5826,VALID,0,VALID,25.9038,VALID,276,VALID,0.296875,
2009-05-12, 00:43:04,VALID,1002.08,VALID,0,VALID,82.4148,VALID,0,VALID,25.8843,VALID,333,VALID,1.22109,
2009-05-12, 00:44:04,VALID,1002.1,VALID,0,VALID,82.3461,VALID,0,VALID,25.9232,VALID,344,VALID,0.847656,
2009-05-12, 00:45:04,VALID,1002.07,VALID,0,VALID,82.308,VALID,0,VALID,25.9427,VALID,339,VALID,0.719922,
2009-05-12, 00:46:04,VALID,1002.08,VALID,0,VALID,82.2775,VALID,0,VALID,25.9427,VALID,356,VALID,0.65,
2009-05-12, 00:47:04,VALID,1002.1,VALID,0,VALID,82.247,VALID,0,VALID,25.9642,VALID,343,VALID,0.299609,
2009-05-12, 00:48:04,VALID,1002.06,VALID,0,VALID,82.3232,VALID,0,VALID,25.9427,VALID,332,VALID,0.533984,
2009-05-12, 00:49:04,VALID,1002.06,VALID,0,VALID,82.247,VALID,0,VALID,25.9427,VALID,354,VALID,0.921094,
2009-05-12, 00:50:04,VALID,1002.05,VALID,0,VALID,82.3232,VALID,0,VALID,25.9213,VALID,3,VALID,0.096875,
2009-05-12, 00:51:04,VALID,1002.06,VALID,0,VALID,82.5597,VALID,0,VALID,25.9018,VALID,14,VALID,0.0328125,
2009-05-12, 00:52:04,VALID,1002.05,VALID,0,VALID,82.6284,VALID,0,VALID,25.8823,VALID,307,VALID,0.535937,
2009-05-12, 00:53:04,VALID,1002.06,VALID,0,VALID,82.6818,VALID,0,VALID,25.8843,VALID,309,VALID,0.584766,
2009-05-12, 00:54:04,VALID,1002.11,VALID,0,VALID,82.8344,VALID,0,VALID,25.8453,VALID,288,VALID,0.151953,
2009-05-12, 00:55:04,VALID,1002.12,VALID,0,VALID,82.8802,VALID,0,VALID,25.8239,VALID,288,VALID,0.363672,
2009-05-12, 00:56:04,VALID,1002.1,VALID,0,VALID,83.0861,VALID,0,VALID,25.8064,VALID,288,VALID,0.228125,
2009-05-12, 00:57:04,VALID,1002.13,VALID,0,VALID,83.1624,VALID,0,VALID,25.7869,VALID,323,VALID,0.642578,
2009-05-12, 00:58:04,VALID,1002.12,VALID,0,VALID,83.1472,VALID,0,VALID,25.748,VALID,301,VALID,0.364844,
2009-05-12, 00:59:04,VALID,1002.13,VALID,0,VALID,83.2769,VALID,0,VALID,25.748,VALID,300,VALID,0.222656,
2009-05-12, 01:00:04,VALID,1002.12,VALID,0,VALID,83.3837,VALID,0,VALID,25.748,VALID,279,VALID,0.703125,
2009-05-12, 01:01:04,VALID,1002.1,VALID,0,VALID,83.2387,VALID,0,VALID,25.7285,VALID,285,VALID,0.536328,
2009-05-12, 01:02:04,VALID,1002.1,VALID,0,VALID,83.4294,VALID,0,VALID,25.7265,VALID,281,VALID,0.305078,
2009-05-12, 01:03:04,VALID,1002.09,VALID,0,VALID,83.1929,VALID,0,VALID,25.7285,VALID,299,VALID,0.515625,
2009-05-12, 01:04:04,VALID,1002.1,VALID,0,VALID,83.2921,VALID,0,VALID,25.6876,VALID,279,VALID,0.136719,
2009-05-12, 01:05:04,VALID,1002.09,VALID,0,VALID,83.4142,VALID,0,VALID,25.6895,VALID,279,VALID,0.0882813,
2009-05-12, 01:06:04,VALID,1002.08,VALID,0,VALID,83.6202,VALID,0,VALID,25.6895,VALID,281,VALID,0.0507813,
2009-05-12, 01:07:04,VALID,1002.06,VALID,0,VALID,83.7346,VALID,0,VALID,25.6506,VALID,359,VALID,0.00664063,
2009-05-12, 01:08:04,VALID,1002.05,VALID,0,VALID,83.6812,VALID,0,VALID,25.6311,VALID,358,VALID,0.0257812,
2009-05-12, 01:09:04,VALID,1002.04,VALID,0,VALID,83.8948,VALID,0,VALID,25.6116,VALID,316,VALID,0.332812,
2009-05-12, 01:10:04,VALID,1002.01,VALID,0,VALID,83.8795,VALID,0,VALID,25.5921,VALID,343,VALID,0.355859,
2009-05-12, 01:11:04,VALID,1002,VALID,0,VALID,83.8948,VALID,0,VALID,25.5921,VALID,342,VALID,0.382813,
2009-05-12, 01:12:04,VALID,1002.01,VALID,0,VALID,83.8795,VALID,0,VALID,25.5727,VALID,8,VALID,0.583984,
2009-05-12, 01:13:04,VALID,1001.99,VALID,0,VALID,83.7727,VALID,0,VALID,25.5727,VALID,354,VALID,0.707031,
2009-05-12, 01:14:04,VALID,1001.94,VALID,0,VALID,83.8185,VALID,0,VALID,25.5921,VALID,348,VALID,0.482031,
2009-05-12, 01:15:04,VALID,1001.9,VALID,0,VALID,83.8033,VALID,0,VALID,25.5921,VALID,340,VALID,0.461328,
2009-05-12, 01:16:04,VALID,1001.89,VALID,0,VALID,83.7193,VALID,0,VALID,25.5921,VALID,347,VALID,0.519922,
2009-05-12, 01:17:04,VALID,1001.84,VALID,0,VALID,83.7346,VALID,0,VALID,25.6116,VALID,279,VALID,0.449219,
2009-05-12, 01:18:04,VALID,1001.81,VALID,0,VALID,83.6507,VALID,0,VALID,25.6097,VALID,8,VALID,0.735937,
2009-05-12, 01:19:04,VALID,1001.82,VALID,0,VALID,83.5591,VALID,0,VALID,25.5902,VALID,355,VALID,0.928516,
2009-05-12, 01:20:04,VALID,1001.78,VALID,0,VALID,83.5591,VALID,0,VALID,25.6311,VALID,343,VALID,0.782812,
2009-05-12, 01:21:04,VALID,1001.76,VALID,0,VALID,83.4981,VALID,0,VALID,25.6311,VALID,348,VALID,0.673828,
2009-05-12, 01:22:04,VALID,1001.75,VALID,0,VALID,83.4523,VALID,0,VALID,25.67,VALID,351,VALID,0.639063,
2009-05-12, 01:23:04,VALID,1001.73,VALID,0,VALID,83.2997,VALID,0,VALID,25.67,VALID,342,VALID,0.410156,
2009-05-12, 01:24:04,VALID,1001.71,VALID,0,VALID,83.3608,VALID,0,VALID,25.6895,VALID,352,VALID,0.442187,
2009-05-12, 01:25:04,VALID,1001.75,VALID,0,VALID,83.3379,VALID,0,VALID,25.6681,VALID,339,VALID,0.535156,
2009-05-12, 01:26:04,VALID,1001.75,VALID,0,VALID,83.2006,VALID,0,VALID,25.709,VALID,335,VALID,0.650781,
2009-05-12, 01:27:04,VALID,1001.75,VALID,0,VALID,83.1243,VALID,0,VALID,25.748,VALID,358,VALID,0.714844,
2009-05-12, 01:28:04,VALID,1001.76,VALID,0,VALID,82.8878,VALID,0,VALID,25.8064,VALID,355,VALID,1.19375,
2009-05-12, 01:29:04,VALID,1001.8,VALID,0,VALID,82.8573,VALID,0,VALID,25.8044,VALID,21,VALID,0.241797,
2009-05-12, 01:30:04,VALID,1001.82,VALID,0,VALID,82.7123,VALID,0,VALID,25.8239,VALID,345,VALID,0.2375,
2009-05-12, 01:31:04,VALID,1001.84,VALID,0,VALID,82.7505,VALID,0,VALID,25.8259,VALID,345,VALID,0,
2009-05-12, 01:32:04,VALID,1001.86,VALID,0,VALID,82.9412,VALID,0,VALID,25.8453,VALID,269,VALID,0.162109,
2009-05-12, 01:33:04,VALID,1001.87,VALID,0,VALID,82.8725,VALID,0,VALID,25.8259,VALID,300,VALID,0.693359,
2009-05-12, 01:34:04,VALID,1001.87,VALID,0,VALID,82.8573,VALID,0,VALID,25.8259,VALID,258,VALID,0.215234,
2009-05-12, 01:35:04,VALID,1001.91,VALID,0,VALID,82.6742,VALID,0,VALID,25.785,VALID,303,VALID,0.557422,
2009-05-12, 01:36:04,VALID,1001.91,VALID,0,VALID,82.5521,VALID,0,VALID,25.8239,VALID,280,VALID,0.923047,
2009-05-12, 01:37:04,VALID,1001.9,VALID,0,VALID,82.7581,VALID,0,VALID,25.8239,VALID,294,VALID,0.391406,
2009-05-12, 01:38:04,VALID,1001.95,VALID,0,VALID,82.7352,VALID,0,VALID,25.8648,VALID,292,VALID,0.495313,
2009-05-12, 01:39:04,VALID,1001.95,VALID,0,VALID,82.5674,VALID,0,VALID,25.8239,VALID,292,VALID,0.714453,
2009-05-12, 01:40:04,VALID,1001.97,VALID,0,VALID,82.7123,VALID,0,VALID,25.8239,VALID,286,VALID,0.0378906,
2009-05-12, 01:41:04,VALID,1001.97,VALID,0,VALID,82.7276,VALID,0,VALID,25.8453,VALID,280,VALID,0.290625,
2009-05-12, 01:42:04,VALID,1001.96,VALID,0,VALID,82.6208,VALID,0,VALID,25.8259,VALID,288,VALID,0.558594,
2009-05-12, 01:43:04,VALID,1001.95,VALID,0,VALID,82.5292,VALID,0,VALID,25.8453,VALID,319,VALID,0.539063,
2009-05-12, 01:44:04,VALID,1001.97,VALID,0,VALID,82.636,VALID,0,VALID,25.8259,VALID,294,VALID,0.88125,
2009-05-12, 01:45:04,VALID,1001.94,VALID,0,VALID,82.903,VALID,0,VALID,25.8044,VALID,320,VALID,0.190234,
2009-05-12, 01:46:04,VALID,1001.91,VALID,0,VALID,82.8344,VALID,0,VALID,25.8044,VALID,307,VALID,0.234766,
2009-05-12, 01:47:04,VALID,1001.85,VALID,0,VALID,82.9564,VALID,0,VALID,25.7674,VALID,354,VALID,0.723437,
2009-05-12, 01:48:04,VALID,1001.86,VALID,0,VALID,82.9488,VALID,0,VALID,25.7869,VALID,350,VALID,0.927344,
2009-05-12, 01:49:04,VALID,1001.84,VALID,0,VALID,83.0175,VALID,0,VALID,25.748,VALID,338,VALID,0.717188,
2009-05-12, 01:50:04,VALID,1001.8,VALID,0,VALID,83.2006,VALID,0,VALID,25.7285,VALID,356,VALID,0.796484,
2009-05-12, 01:51:04,VALID,1001.79,VALID,0,VALID,83.3226,VALID,0,VALID,25.6681,VALID,345,VALID,0.787891,
2009-05-12, 01:52:04,VALID,1001.76,VALID,0,VALID,83.4676,VALID,0,VALID,25.67,VALID,357,VALID,1.32773,
2009-05-12, 01:53:04,VALID,1001.74,VALID,0,VALID,83.6583,VALID,0,VALID,25.6292,VALID,336,VALID,0.879297,
2009-05-12, 01:54:04,VALID,1001.71,VALID,0,VALID,83.7804,VALID,0,VALID,25.6116,VALID,3,VALID,0.844531,
2009-05-12, 01:55:04,VALID,1001.68,VALID,0,VALID,84.0397,VALID,0,VALID,25.5513,VALID,355,VALID,0.664844,
2009-05-12, 01:56:04,VALID,1001.69,VALID,0,VALID,84.3678,VALID,0.100563,VALID,25.5142,VALID,4,VALID,0.425391,
2009-05-12, 01:57:04,VALID,1001.66,VALID,0,VALID,84.589,VALID,0,VALID,25.4344,VALID,4,VALID,0.985937,
2009-05-12, 01:58:04,VALID,1001.66,VALID,0,VALID,84.7492,VALID,0,VALID,25.3955,VALID,346,VALID,0.848437,
2009-05-12, 01:59:04,VALID,1001.67,VALID,0,VALID,84.9476,VALID,0,VALID,25.3955,VALID,12,VALID,0.773828,
2009-05-12, 02:00:04,VALID,1001.63,VALID,0,VALID,85.062,VALID,0,VALID,25.3974,VALID,2,VALID,0.759766,
2009-05-12, 02:01:04,VALID,1001.64,VALID,0,VALID,85.2222,VALID,0.100563,VALID,25.3565,VALID,13,VALID,0.790625,
2009-05-12, 02:02:04,VALID,1001.6,VALID,0,VALID,85.1993,VALID,0,VALID,25.3565,VALID,335,VALID,0.661719,
2009-05-12, 02:03:04,VALID,1001.53,VALID,0,VALID,85.268,VALID,0,VALID,25.3955,VALID,348,VALID,1.72227,
2009-05-12, 02:04:04,VALID,1001.5,VALID,0,VALID,85.0696,VALID,0,VALID,25.413,VALID,1,VALID,0.845312,
2009-05-12, 02:05:04,VALID,1001.52,VALID,0,VALID,84.8942,VALID,0,VALID,25.4734,VALID,341,VALID,0.821484,
2009-05-12, 02:06:04,VALID,1001.53,VALID,0,VALID,84.8713,VALID,0,VALID,25.4928,VALID,358,VALID,1.02305,
2009-05-12, 02:07:04,VALID,1001.51,VALID,0,VALID,84.8942,VALID,0.100563,VALID,25.5318,VALID,343,VALID,0.469141,
2009-05-12, 02:08:04,VALID,1001.51,VALID,0,VALID,84.8332,VALID,0.100563,VALID,25.5688,VALID,359,VALID,1.37578,
2009-05-12, 02:09:04,VALID,1001.51,VALID,0,VALID,84.5051,VALID,0.100563,VALID,25.6486,VALID,343,VALID,0.994141,
2009-05-12, 02:10:04,VALID,1001.5,VALID,0,VALID,84.3449,VALID,0.100563,VALID,25.6681,VALID,341,VALID,1.38672,
2009-05-12, 02:11:04,VALID,1001.54,VALID,0,VALID,84.3373,VALID,0.100563,VALID,25.6876,VALID,345,VALID,1.27461,
2009-05-12, 02:12:04,VALID,1001.54,VALID,0,VALID,84.2,VALID,0,VALID,25.7265,VALID,6,VALID,0.822656,
2009-05-12, 02:13:04,VALID,1001.55,VALID,0,VALID,84.1084,VALID,0.100563,VALID,25.7655,VALID,41,VALID,0.778125,
2009-05-12, 02:14:04,VALID,1001.57,VALID,0,VALID,84.0855,VALID,0,VALID,25.785,VALID,53,VALID,0.371484,
2009-05-12, 02:15:04,VALID,1001.58,VALID,0,VALID,84.0779,VALID,0,VALID,25.7655,VALID,345,VALID,0.715234,
2009-05-12, 02:16:04,VALID,1001.56,VALID,0,VALID,84.0016,VALID,0,VALID,25.785,VALID,350,VALID,0.577344,
2009-05-12, 02:17:04,VALID,1001.54,VALID,0,VALID,83.9024,VALID,0.100563,VALID,25.8239,VALID,296,VALID,0.501172,
2009-05-12, 02:18:04,VALID,1001.54,VALID,0,VALID,83.8338,VALID,0,VALID,25.8434,VALID,5,VALID,0.671484,
2009-05-12, 02:19:04,VALID,1001.53,VALID,0,VALID,83.9482,VALID,0.100563,VALID,25.8434,VALID,4,VALID,0.306641,
2009-05-12, 02:20:04,VALID,1001.58,VALID,0,VALID,83.9482,VALID,0,VALID,25.8239,VALID,300,VALID,0.670313,
2009-05-12, 02:21:04,VALID,1001.57,VALID,0,VALID,84.1237,VALID,0,VALID,25.8239,VALID,325,VALID,0.321875,
2009-05-12, 02:22:04,VALID,1001.61,VALID,0,VALID,84.2915,VALID,0,VALID,25.785,VALID,355,VALID,0.598437,
2009-05-12, 02:23:04,VALID,1001.59,VALID,0,VALID,84.4441,VALID,0,VALID,25.785,VALID,356,VALID,0.620703,
2009-05-12, 02:24:04,VALID,1001.61,VALID,0,VALID,84.5585,VALID,0,VALID,25.7869,VALID,356,VALID,0.0992187,
2009-05-12, 02:25:04,VALID,1001.57,VALID,0,VALID,84.7416,VALID,0,VALID,25.746,VALID,340,VALID,0.782031,
2009-05-12, 02:26:04,VALID,1001.52,VALID,0,VALID,84.8789,VALID,0,VALID,25.746,VALID,350,VALID,0.453906,
2009-05-12, 02:27:04,VALID,1001.5,VALID,0,VALID,85.062,VALID,0,VALID,25.7285,VALID,350,VALID,0.282813,
2009-05-12, 02:28:04,VALID,1001.43,VALID,0,VALID,85.2756,VALID,0,VALID,25.6486,VALID,352,VALID,0.664844,
2009-05-12, 02:29:04,VALID,1001.42,VALID,0,VALID,85.7105,VALID,0,VALID,25.6292,VALID,2,VALID,0.847266,
2009-05-12, 02:30:04,VALID,1001.43,VALID,0,VALID,85.6571,VALID,0,VALID,25.6681,VALID,3,VALID,0.761719,
2009-05-12, 02:31:04,VALID,1001.44,VALID,0,VALID,85.5503,VALID,0,VALID,25.7071,VALID,358,VALID,1.21797,
2009-05-12, 02:32:04,VALID,1001.42,VALID,0,VALID,85.4206,VALID,0.100563,VALID,25.746,VALID,330,VALID,0.647266,
2009-05-12, 02:33:04,VALID,1001.48,VALID,0,VALID,85.268,VALID,0,VALID,25.785,VALID,356,VALID,0.531641,
2009-05-12, 02:34:04,VALID,1001.51,VALID,0,VALID,85.1002,VALID,0.100563,VALID,25.8239,VALID,4,VALID,0.600391,
2009-05-12, 02:35:04,VALID,1001.5,VALID,0,VALID,84.9247,VALID,0,VALID,25.8434,VALID,339,VALID,0.654688,
2009-05-12, 02:36:04,VALID,1001.5,VALID,0,VALID,84.8179,VALID,0,VALID,25.8823,VALID,345,VALID,0.419531,
2009-05-12, 02:37:04,VALID,1001.47,VALID,0,VALID,84.6806,VALID,0.100563,VALID,25.9018,VALID,342,VALID,0.570703,
2009-05-12, 02:38:04,VALID,1001.44,VALID,0,VALID,84.4899,VALID,0.100563,VALID,25.9408,VALID,348,VALID,0.748047,
2009-05-12, 02:39:04,VALID,1001.43,VALID,0,VALID,84.4517,VALID,0,VALID,25.9408,VALID,348,VALID,0.425391,
2009-05-12, 02:40:04,VALID,1001.42,VALID,0,VALID,84.4059,VALID,0.100563,VALID,25.9817,VALID,351,VALID,0.526172,
2009-05-12, 02:41:04,VALID,1001.4,VALID,0,VALID,84.3525,VALID,0,VALID,25.9213,VALID,353,VALID,0.432813,
2009-05-12, 02:42:04,VALID,1001.43,VALID,0,VALID,84.4975,VALID,0,VALID,25.9213,VALID,352,VALID,0,
2009-05-12, 02:43:04,VALID,1001.42,VALID,0,VALID,84.5661,VALID,0,VALID,25.9018,VALID,355,VALID,0.133203,
2009-05-12, 02:44:04,VALID,1001.45,VALID,0,VALID,84.7111,VALID,0,VALID,25.9038,VALID,275,VALID,0.998828,
2009-05-12, 02:45:04,VALID,1001.43,VALID,0,VALID,84.589,VALID,0.100563,VALID,25.8629,VALID,311,VALID,0.0796875,
2009-05-12, 02:46:04,VALID,1001.48,VALID,0,VALID,84.589,VALID,0,VALID,25.8239,VALID,274,VALID,0.544922,
2009-05-12, 02:47:04,VALID,1001.5,VALID,0,VALID,84.5967,VALID,0,VALID,25.8239,VALID,287,VALID,0.282813,
2009-05-12, 02:48:04,VALID,1001.51,VALID,0,VALID,84.5814,VALID,0,VALID,25.8044,VALID,294,VALID,1.00977,
2009-05-12, 02:49:04,VALID,1001.55,VALID,0,VALID,84.6195,VALID,0,VALID,25.8259,VALID,292,VALID,0.301953,
2009-05-12, 02:50:04,VALID,1001.57,VALID,0,VALID,84.5433,VALID,0,VALID,25.785,VALID,283,VALID,0.811719,
2009-05-12, 02:51:04,VALID,1001.56,VALID,0,VALID,84.7187,VALID,0,VALID,25.785,VALID,278,VALID,0.232422,
2009-05-12, 02:52:04,VALID,1001.59,VALID,0,VALID,84.7492,VALID,0,VALID,25.746,VALID,354,VALID,0.604297,
2009-05-12, 02:53:04,VALID,1001.63,VALID,0,VALID,84.8789,VALID,0,VALID,25.7265,VALID,345,VALID,0.245312,
2009-05-12, 02:54:04,VALID,1001.64,VALID,0,VALID,84.9857,VALID,0,VALID,25.709,VALID,356,VALID,0.714063,
2009-05-12, 02:55:04,VALID,1001.66,VALID,0,VALID,85.2756,VALID,0,VALID,25.6292,VALID,355,VALID,0.734375,
2009-05-12, 02:56:04,VALID,1001.64,VALID,0,VALID,85.4969,VALID,0,VALID,25.5921,VALID,23,VALID,0.446484,
2009-05-12, 02:57:04,VALID,1001.63,VALID,0,VALID,85.7715,VALID,0,VALID,25.5123,VALID,16,VALID,0.571094,
2009-05-12, 02:58:04,VALID,1001.6,VALID,0,VALID,86.0461,VALID,0.100563,VALID,25.4539,VALID,356,VALID,0.615234,
2009-05-12, 02:59:04,VALID,1001.59,VALID,0,VALID,86.3208,VALID,0.100563,VALID,25.3955,VALID,340,VALID,0.473437,
2009-05-12, 03:00:04,VALID,1001.54,VALID,0,VALID,86.6259,VALID,0,VALID,25.3176,VALID,346,VALID,0.603516,
2009-05-12, 03:01:04,VALID,1001.5,VALID,0,VALID,86.9082,VALID,0,VALID,25.2806,VALID,342,VALID,0.787891,
2009-05-12, 03:02:04,VALID,1001.49,VALID,0,VALID,87.1142,VALID,0,VALID,25.2202,VALID,351,VALID,0.636719,
2009-05-12, 03:03:04,VALID,1001.44,VALID,0,VALID,87.2668,VALID,0,VALID,25.2007,VALID,350,VALID,0.660156,
2009-05-12, 03:04:04,VALID,1001.45,VALID,0,VALID,87.3583,VALID,0.100563,VALID,25.1813,VALID,337,VALID,0.517969,
2009-05-12, 03:05:04,VALID,1001.42,VALID,0,VALID,87.4575,VALID,0.100563,VALID,25.1423,VALID,326,VALID,0.652344,
2009-05-12, 03:06:04,VALID,1001.42,VALID,0,VALID,87.5033,VALID,0,VALID,25.1813,VALID,346,VALID,0.678516,
2009-05-12, 03:07:04,VALID,1001.46,VALID,0,VALID,87.5872,VALID,0.100563,VALID,25.1813,VALID,346,VALID,0.589844,
2009-05-12, 03:08:04,VALID,1001.47,VALID,0,VALID,87.6101,VALID,0,VALID,25.2027,VALID,354,VALID,0.207422,
2009-05-12, 03:09:04,VALID,1001.46,VALID,0,VALID,87.5643,VALID,0,VALID,25.2202,VALID,357,VALID,0.345313,
2009-05-12, 03:10:04,VALID,1001.46,VALID,0,VALID,87.5033,VALID,0,VALID,25.2397,VALID,350,VALID,0.585156,
2009-05-12, 03:11:04,VALID,1001.46,VALID,0,VALID,87.2515,VALID,0,VALID,25.2981,VALID,347,VALID,0.916016,
2009-05-12, 03:12:04,VALID,1001.47,VALID,0,VALID,86.9387,VALID,0.100563,VALID,25.376,VALID,340,VALID,0.485156,
2009-05-12, 03:13:04,VALID,1001.5,VALID,0,VALID,86.6412,VALID,0,VALID,25.4149,VALID,351,VALID,0.636328,
2009-05-12, 03:14:04,VALID,1001.49,VALID,0,VALID,86.4276,VALID,0,VALID,25.4753,VALID,357,VALID,0.772266,
2009-05-12, 03:15:04,VALID,1001.51,VALID,0,VALID,86.3208,VALID,0.100563,VALID,25.4948,VALID,353,VALID,0.832812,
2009-05-12, 03:16:04,VALID,1001.56,VALID,0,VALID,86.2292,VALID,0.100563,VALID,25.4928,VALID,354,VALID,0.438672,
2009-05-12, 03:17:04,VALID,1001.59,VALID,0,VALID,86.2521,VALID,0,VALID,25.5337,VALID,360,VALID,0.162109,
2009-05-12, 03:18:04,VALID,1001.62,VALID,0,VALID,86.2292,VALID,0.100563,VALID,25.5123,VALID,319,VALID,0.259766,
2009-05-12, 03:19:04,VALID,1001.64,VALID,0,VALID,86.1835,VALID,0,VALID,25.5318,VALID,319,VALID,0.0964844,
2009-05-12, 03:20:04,VALID,1001.65,VALID,0,VALID,86.1758,VALID,0,VALID,25.5318,VALID,308,VALID,0.282031,
2009-05-12, 03:21:04,VALID,1001.65,VALID,0,VALID,86.0919,VALID,0.100563,VALID,25.5298,VALID,292,VALID,0.580859,
2009-05-12, 03:22:04,VALID,1001.59,VALID,0,VALID,85.9622,VALID,0,VALID,25.5707,VALID,289,VALID,0.882813,
2009-05-12, 03:23:04,VALID,1001.56,VALID,0,VALID,85.7181,VALID,0.100563,VALID,25.6116,VALID,298,VALID,0.413281,
2009-05-12, 03:24:04,VALID,1001.52,VALID,0,VALID,85.6723,VALID,0,VALID,25.6292,VALID,273,VALID,0.369531,
2009-05-12, 03:25:04,VALID,1001.48,VALID,0,VALID,85.596,VALID,0,VALID,25.6097,VALID,273,VALID,0.191406,
2009-05-12, 03:26:04,VALID,1001.43,VALID,0,VALID,85.6189,VALID,0.100563,VALID,25.6097,VALID,8,VALID,0.679297,
2009-05-12, 03:27:04,VALID,1001.39,VALID,0,VALID,85.7105,VALID,0.100563,VALID,25.6097,VALID,328,VALID,0.173828,
2009-05-12, 03:28:04,VALID,1001.35,VALID,0,VALID,85.8707,VALID,0,VALID,25.6116,VALID,350,VALID,0.704297,
2009-05-12, 03:29:04,VALID,1001.36,VALID,0,VALID,85.9622,VALID,0,VALID,25.5707,VALID,353,VALID,0.985937,
2009-05-12, 03:30:04,VALID,1001.37,VALID,0,VALID,86.0156,VALID,0,VALID,25.5707,VALID,328,VALID,1.21445,
2009-05-12, 03:31:04,VALID,1001.35,VALID,0,VALID,86.0309,VALID,0,VALID,25.5513,VALID,357,VALID,1.27188,
2009-05-12, 03:32:04,VALID,1001.36,VALID,0,VALID,86.1377,VALID,0,VALID,25.5318,VALID,341,VALID,0.963281,
2009-05-12, 03:33:04,VALID,1001.36,VALID,0,VALID,86.2292,VALID,0.100563,VALID,25.5104,VALID,359,VALID,0.714453,
2009-05-12, 03:34:04,VALID,1001.38,VALID,0,VALID,86.3437,VALID,0,VALID,25.5318,VALID,341,VALID,0.716406,
2009-05-12, 03:35:04,VALID,1001.36,VALID,0,VALID,86.4734,VALID,0.100563,VALID,25.5337,VALID,351,VALID,1.11992,
2009-05-12, 03:36:04,VALID,1001.38,VALID,0,VALID,86.5039,VALID,0,VALID,25.5123,VALID,336,VALID,1.14414,
2009-05-12, 03:37:04,VALID,1001.41,VALID,0,VALID,86.5649,VALID,0,VALID,25.5318,VALID,352,VALID,1.27891,
2009-05-12, 03:38:04,VALID,1001.39,VALID,0,VALID,86.4657,VALID,0.100563,VALID,25.5513,VALID,357,VALID,0.647266,
2009-05-12, 03:39:04,VALID,1001.44,VALID,0,VALID,86.4276,VALID,0.100563,VALID,25.5513,VALID,347,VALID,1.07891,
2009-05-12, 03:40:04,VALID,1001.42,VALID,0,VALID,86.336,VALID,0,VALID,25.5902,VALID,5,VALID,0.336328,
2009-05-12, 03:41:04,VALID,1001.42,VALID,0,VALID,86.2369,VALID,0,VALID,25.6097,VALID,358,VALID,1.01602,
2009-05-12, 03:42:04,VALID,1001.46,VALID,0,VALID,86.1987,VALID,0,VALID,25.6292,VALID,355,VALID,0.654688,
2009-05-12, 03:43:04,VALID,1001.47,VALID,0,VALID,86.069,VALID,0,VALID,25.6097,VALID,338,VALID,0.943359,